Regional Weather Roundup
Issued by NWS

Home | Current Version | Previous Version | Graphics & Text | Print | Product List | Glossary On
Versions: 1 2 3 4 5 6 7 8 9 10 11 12 13 14 15 16 17 18 19 20 21 22 23 24 25 26 27 28 29 30 31 32 33 34 35 36 37 38 39 40 41 42 43 44 45 46 47 48 49 50
000
ASUS45 KSLC 302310
RWRUT

UTAH REGIONAL WEATHER ROUNDUP
NATIONAL WEATHER SERVICE SALT LAKE CITY UT
500 PM MDT SAT APR 30 2016

UTZ001>011-023>025-010000-

NORTHERN UTAH

CITY           SKY/WX    TMP DP  RH WIND       PRES   REMARKS
BRIGHAM CITY   PTSUNNY   59  28  30 CALM      29.96S
HILL AFB       PTSUNNY   57  32  38 E18G28    29.95R
LOGAN          PTSUNNY   57  37  47 MISG      29.97F
OGDEN          PTSUNNY   59  32  36 E20G28    29.95R
PROVO AIRPORT  PTSUNNY   55  36  47 SE10      29.91S
SALT LAKE CITY PTSUNNY   62  28  27 N15       29.90S
VERNAL         CLOUDY    49  30  48 NE17G24   30.00S
WENDOVER       PTSUNNY   55  39  54 N16       29.99S
HEBER CITY     CLOUDY    48  34  57 NE9       29.95R

$$

UTZ012>022-026-027-010000-

SOUTHERN/CENTRAL UTAH

CITY           SKY/WX    TMP DP  RH WIND       PRES   REMARKS
BLANDING       CLOUDY    54  35  48 W9        29.92F
BRYCE CANYON   LGT RAIN  36  34  92 NW5       29.91F WCI  32
CEDAR CITY     LGT RAIN  46  42  86 SE5       29.86R
DELTA          CLOUDY    59  30  33 N16       29.86S
HANKSVILLE     PTSUNNY   59  30  33 NE15G26   29.86S
MILFORD        LGT RAIN  56  38  50 NE26G36   29.84R
MOAB/CYNLANDS  PTSUNNY   58  30  34 NE23      29.84S
PRICE          MOSUNNY   52  26  36 N24       29.93S
ST GEORGE      CLOUDY    63  45  51 W10       29.79S
KANAB          MOSUNNY   54  43  66 NE15      29.88S

$$

REGIONAL REPORTS     COLORADO/ARIZONA

CITY           SKY/WX    TMP DP  RH WIND       PRES   REMARKS
CRAIG, CO      CLOUDY    47  26  44 NE7       29.97R
GRAND JUNCTION CLOUDY    53  31  42 NE9       29.87F
RIFLE          CLOUDY    51  30  44 NW6       29.91R
MONTROSE       CLOUDY    54  28  36 W10G17    29.88S
CORTEZ         LGT RAIN  51  37  58 W9G22     29.84S
PAGE, AZ       CLOUDY    55  42  61 NE10      29.84F
GRAND CANYON   CLOUDY    39  36  89 NE12      29.87F WCI  32
KINGMAN        PTSUNNY   56  45  66 NE14      29.76F
FLAGSTAFF      CLOUDY    40  37  89 NE8       29.83F WCI  34

$$

REGIONAL REPORTS    NEVADA/IDAHO/WYOMING

CITY           SKY/WX    TMP DP  RH WIND       PRES   REMARKS
LAS VEGAS, NV  CLOUDY    64  44  48 NE10      29.72F
ELY            PTSUNNY   52  36  54 N25G31    29.94F
ELKO           CLOUDY    56  32  40 NE13G21   29.99F
POCATELLO, ID  CLOUDY    55  39  54 E9        30.02S
BURLEY         PTSUNNY   57  40  52 VRB3      30.02F
EVANSTON, WY   CLOUDY    39  31  72 E21G26    30.06R WCI  29
ROCK SPRINGS   CLOUDY    38  30  73 NE21G29   30.09R WCI  28
KEMMERER       LGT SNOW  36  34  93 E16       30.09R WCI  26

$$



USA.gov is the U.S. government's official web portal to all federal, state and local government web resources and services.